[[{"header":{"parameterUnit":"m.s-1","parameterCategory":1,"la1":30.2991,"la2":30.254,"lo1":-89.0895,"lo2":-89.0444,"dy":0.0017,"dx":0.0017,"nx":28,"ny":28,"refTime":"2024-10-15T03:00:00:Z","depth":0,"parameterNumber":2,"parameterNumberName":"U-component_of_WINDS"},"data":[0,0,0,0,0,0,0,0,0,0,0,0,0,0,0,0,0,0,0,0,0,0,0,0,0,0,0,0,0,0,0,0,0,0,0,0,0,0,0,0,0,0,0,0,0,0,0,0,0,0,0,0,0,0,0,0,0,0,-2.3396,-2.3396,0,-2.3415,-2.3415,-2.3415,-2.337,-2.3369,-2.3368,-2.3366,-2.3386,-2.3387,-2.3389,0,0,0,0,0,0,0,0,0,0,0,0,0,-2.332,-2.3321,-2.3396,-2.3396,-2.3396,-2.3415,-2.3415,-2.3415,-2.3371,-2.3369,-2.3367,-2.3366,-2.3385,-2.3387,-2.3389,0,0,0,0,0,0,0,0,0,0,0,0,0,-2.3347,-2.3322,-2.3396,-2.3376,-2.3375,-2.3415,-2.3415,-2.3415,-2.3371,-2.3369,-2.3367,-2.3365,-2.3384,-2.3387,-2.339,-2.345,0,0,-2.3398,-2.3399,0,0,0,0,0,0,0,0,-2.3346,-2.335,-2.3379,-2.3378,-2.3376,-2.3388,-2.3395,-2.3427,-2.3372,-2.3372,-2.3366,-2.3364,-2.3388,-2.339,-2.3399,-2.3451,-2.3451,-2.3398,-2.34,-2.3401,-2.3402,0,0,0,0,0,0,0,-2.3344,-2.3349,-2.3403,-2.3379,-2.3377,-2.3366,-2.3368,-2.3401,-2.3392,-2.3372,-2.3369,-2.3372,-2.3387,-2.3396,-2.3399,-2.3452,-2.3398,-2.3401,-2.3403,-2.3404,-2.3553,-2.3555,0,0,0,0,0,0,-2.3345,-2.3348,-2.3403,-2.3404,-2.3355,-2.3369,-2.3371,-2.3386,-2.3392,-2.339,-2.3374,-2.337,-2.3393,-2.3396,-2.3399,-2.347,-2.3401,-2.3404,-2.3405,-2.3551,-2.3554,-2.3556,0,0,0,0,0,0,-2.3343,-2.335,-2.3402,-2.3375,-2.3381,-2.3373,-2.339,-2.3388,-2.3397,-2.3393,-2.3391,-2.3385,-2.3391,-2.3395,-2.3437,-2.347,-2.3405,-2.3408,-2.3548,-2.3552,-2.3555,-2.3611,0,0,0,0,0,0,-2.3341,-2.335,-2.3373,-2.3376,-2.3382,-2.344,-2.3392,-2.339,-2.3402,-2.3397,-2.3403,-2.3402,-2.339,-2.3434,-2.344,-2.3473,-2.341,-2.3545,-2.355,-2.3554,-2.3607,-2.3616,-2.3625,0,0,0,0,0,-2.3339,-2.3388,-2.3374,-2.3381,-2.3411,-2.3442,-2.3446,-2.3431,-2.3405,-2.3428,-2.3425,-2.3401,-2.3465,-2.3438,-2.3445,-2.3479,-2.3543,-2.3548,-2.3553,-2.3603,-2.3614,-2.3624,0,0,0,0,0,0,-2.3389,-2.3388,-2.3373,-2.3424,-2.3434,-2.3434,-2.3463,-2.3444,-2.3461,-2.3456,-2.3436,-2.3438,-2.3484,-2.3485,-2.3455,-2.3537,-2.35,-2.3506,-2.3534,-2.3546,-2.3555,-2.3553,-2.3412,0,0,0,0,0,-2.3406,-2.3431,-2.3429,-2.3475,-2.348,-2.3471,-2.3484,-2.3472,-2.348,-2.3484,-2.3484,-2.3494,-2.3516,-2.3531,-2.3551,-2.3606,-2.3607,-2.3633,-2.3642,-2.3649,-2.3656,-2.3685,-2.3696,-2.3573,-2.3573,-2.3573,0,0,-2.3441,-2.3444,-2.3461,-2.3485,-2.3491,-2.3517,-2.3474,-2.3505,-2.3524,-2.3489,-2.3528,-2.3529,-2.3538,-2.3587,-2.3608,-2.359,-2.369,-2.3656,-2.3662,-2.3664,-2.3691,-2.3703,-2.3714,-2.3577,-2.3576,-2.3576,0,0,-2.352,-2.3525,-2.3563,-2.357,-2.3579,-2.3572,-2.3581,-2.3585,-2.3584,-2.3623,-2.3597,-2.362,-2.3658,-2.3666,-2.3675,-2.3755,-2.3734,-2.3762,-2.381,-2.3838,-2.3848,-2.3857,-2.3886,-2.3896,-2.3768,-2.3769,-2.3769,0,-2.3563,-2.3603,-2.3585,-2.3617,-2.3628,-2.3597,-2.3636,-2.3643,-2.3658,-2.3667,-2.3645,-2.3693,-2.3696,-2.3747,-2.3766,-2.3774,-2.3784,-2.3762,-2.3848,-2.3857,-2.3864,-2.3892,-2.3902,-2.3772,-2.3771,-2.3771,-2.3771,0,-2.3655,-2.3683,-2.3713,-2.3728,-2.3743,-2.3778,-2.3766,-2.3782,-2.3769,-2.3764,-2.3804,-2.3808,-2.3828,-2.3839,-2.3826,-2.3887,-2.3875,-2.3851,-2.3813,-2.388,-2.3905,-2.3915,-2.3777,-2.3775,-2.3774,-2.3774,0,0,-2.3767,-2.3772,-2.3783,-2.379,-2.3797,-2.3818,-2.3852,-2.3871,-2.3886,-2.3897,-2.3925,-2.3957,-2.3935,-2.3945,-2.3933,-2.3958,-2.4022,-2.3931,-2.3931,-2.3948,-2.4089,-2.4108,-2.412,-2.4007,-2.4009,-2.4011,-2.4089,0,-2.3845,-2.3903,-2.3888,-2.3945,-2.397,-2.3941,-2.397,-2.3977,-2.3974,-2.3994,-2.399,-2.4014,-2.3983,-2.3989,-2.4012,-2.4009,-2.405,-2.4003,-2.4033,-2.4034,-2.4032,-2.4133,-2.4153,-2.4226,-2.4098,-2.41,-2.4101,0,-2.3944,-2.3959,-2.4019,-2.4022,-2.4032,-2.4058,-2.4075,-2.4095,-2.4102,-2.4098,-2.4109,-2.4091,-2.4124,-2.4085,-2.413,-2.4098,-2.411,-2.411,-2.4112,-2.4115,-2.4072,-2.4139,-2.4249,-2.426,-2.4117,-2.4115,-2.4114,0,-2.4019,-2.4055,-2.4095,-2.4101,-2.4106,-2.4125,-2.4128,-2.4133,-2.4146,-2.416,-2.4168,-2.4186,-2.4196,-2.421,-2.4197,-2.417,-2.4244,-2.4204,-2.4241,-2.4241,-2.4258,-2.4258,-2.4372,-2.4265,-2.4265,-2.4265,-2.4264,0,-2.4108,-2.4146,-2.4129,-2.4154,-2.4195,-2.4178,-2.4219,-2.4218,-2.4223,-2.4247,-2.4222,-2.4245,-2.4227,-2.4248,-2.4238,-2.4277,-2.4282,-2.4279,-2.4276,-2.4281,-2.4282,-2.4289,-2.4284,-2.4268,-2.4267,-2.4266,-2.4266,0,-2.42,-2.419,-2.4232,-2.4233,-2.4234,-2.4264,-2.4264,-2.4287,-2.4281,-2.4312,-2.4318,-2.4309,-2.4333,-2.4321,-2.4346,-2.4339,-2.4389,-2.4379,-2.4387,-2.4384,-2.4422,-2.4419,-2.4545,-2.4561,-2.4444,-2.4445,-2.4446,0,-2.4258,-2.4286,-2.429,-2.4304,-2.4308,-2.4332,-2.4344,-2.4328,-2.4342,-2.4352,-2.4374,-2.4395,-2.4412,-2.4451,-2.4447,-2.4465,-2.4456,-2.4499,-2.4458,-2.4463,-2.4456,-2.4455,-2.4458,-2.4507,-2.4508,-2.4509,-2.451,0,-2.4361,-2.4355,-2.4374,-2.4392,-2.4407,-2.442,-2.4431,-2.4444,-2.4427,-2.4444,-2.4468,-2.4481,-2.4506,-2.4528,-2.4544,-2.4546,-2.4526,-2.4523,-2.4533,-2.4539,-2.4542,-2.4541,-2.4409,-2.452,-2.4519,-2.4519,-2.4518,-2.4518,-2.4438,-2.4462,-2.4468,-2.449,-2.4496,-2.4507,-2.4528,-2.4525,-2.4545,-2.4564,-2.4552,-2.4581,-2.4587,-2.4606,-2.4611,-2.4632,-2.4615,-2.4629,-2.4633,-2.4637,-2.4642,-2.4538,-2.4635,-2.4635,-2.4635,-2.4634,-2.4634,0,-2.4541,-2.4543,-2.4563,-2.4579,-2.4596,-2.4575,-2.4586,-2.4602,-2.4627,-2.4634,-2.4651,-2.4678,-2.4698,-2.4695,-2.4714,-2.4732,-2.4723,-2.4737,-2.4736,-2.4737,-2.4656,-2.4646,-2.4744,-2.4744,-2.4744,-2.4744,-2.4744,-2.4744,-2.4596,-2.4635,-2.4629,-2.4671,-2.4673,-2.47,-2.4708,-2.4717,-2.4723,-2.4755,-2.4772,-2.4769,-2.4773,-2.4791,-2.4809,-2.4808,-2.4816,-2.4834,-2.4829,-2.4753,-2.4743,-2.4732,-2.4723,-2.4836,-2.4836,-2.4908,-2.4909,-2.4909]},{"header":{"parameterUnit":"m.s-1","parameterCategory":1,"la1":30.2991,"la2":30.254,"lo1":-89.0895,"lo2":-89.0444,"dy":0.0017,"dx":0.0017,"nx":28,"ny":28,"refTime":"2024-10-15T03:00:00:Z","depth":0,"parameterNumber":3,"parameterNumberName":"V-component_of_WINDS"},"data":[0,0,0,0,0,0,0,0,0,0,0,0,0,0,0,0,0,0,0,0,0,0,0,0,0,0,0,0,0,0,0,0,0,0,0,0,0,0,0,0,0,0,0,0,0,0,0,0,0,0,0,0,0,0,0,0,0,0,-6.8168,-6.8168,0,-6.8216,-6.8217,-6.8217,-6.8162,-6.816,-6.8158,-6.8156,-6.82,-6.8203,-6.8206,0,0,0,0,0,0,0,0,0,0,0,0,0,-6.8023,-6.8026,-6.8168,-6.8168,-6.8169,-6.8216,-6.8217,-6.8217,-6.8163,-6.816,-6.8158,-6.8155,-6.8199,-6.8203,-6.8207,0,0,0,0,0,0,0,0,0,0,0,0,0,-6.808,-6.8027,-6.8168,-6.8147,-6.8146,-6.8216,-6.8217,-6.8218,-6.8163,-6.816,-6.8157,-6.8154,-6.8198,-6.8202,-6.8207,-6.8297,0,0,-6.8221,-6.8223,0,0,0,0,0,0,0,0,-6.8077,-6.8085,-6.815,-6.8149,-6.8148,-6.818,-6.8182,-6.8244,-6.8164,-6.8156,-6.8156,-6.8152,-6.8196,-6.82,-6.8216,-6.83,-6.8301,-6.8222,-6.8224,-6.8226,-6.8228,0,0,0,0,0,0,0,-6.8073,-6.8083,-6.8187,-6.8151,-6.815,-6.8134,-6.8139,-6.8193,-6.8193,-6.8157,-6.8153,-6.816,-6.8194,-6.8212,-6.8217,-6.8302,-6.8221,-6.8226,-6.8228,-6.823,-6.8463,-6.8466,0,0,0,0,0,0,-6.8072,-6.808,-6.8185,-6.8188,-6.8104,-6.8139,-6.8145,-6.8173,-6.8192,-6.8192,-6.8162,-6.8157,-6.8205,-6.8211,-6.8218,-6.8325,-6.8226,-6.8231,-6.8233,-6.8459,-6.8463,-6.8467,0,0,0,0,0,0,-6.8069,-6.8082,-6.8183,-6.8133,-6.8145,-6.8145,-6.8177,-6.8175,-6.8192,-6.8196,-6.8195,-6.8181,-6.8203,-6.8211,-6.8279,-6.8326,-6.8233,-6.8237,-6.8455,-6.846,-6.8465,-6.8541,0,0,0,0,0,0,-6.8065,-6.8081,-6.8117,-6.8134,-6.8148,-6.8245,-6.818,-6.8178,-6.8201,-6.8195,-6.8213,-6.8213,-6.8201,-6.8272,-6.8283,-6.8331,-6.8241,-6.8451,-6.8458,-6.8464,-6.8534,-6.8548,-6.856,0,0,0,0,0,-6.806,-6.8135,-6.8119,-6.8132,-6.8192,-6.8248,-6.8255,-6.8242,-6.8205,-6.824,-6.8243,-6.8212,-6.8319,-6.8279,-6.8291,-6.8341,-6.8448,-6.8456,-6.8463,-6.8528,-6.8545,-6.856,0,0,0,0,0,0,-6.812,-6.8137,-6.8119,-6.8202,-6.8224,-6.8238,-6.8282,-6.826,-6.8291,-6.8284,-6.8264,-6.8269,-6.8341,-6.8347,-6.8303,-6.843,-6.8377,-6.8388,-6.8423,-6.8439,-6.8452,-6.8448,-6.8245,0,0,0,0,0,-6.8143,-6.8189,-6.82,-6.8272,-6.8284,-6.8282,-6.8305,-6.8293,-6.8314,-6.8323,-6.833,-6.8351,-6.8389,-6.8414,-6.8449,-6.8535,-6.8538,-6.8575,-6.8588,-6.8599,-6.8608,-6.8654,-6.867,-6.8492,-6.8492,-6.8492,0,0,-6.8191,-6.8206,-6.8235,-6.8284,-6.83,-6.8346,-6.8289,-6.834,-6.8373,-6.833,-6.8394,-6.8401,-6.8422,-6.8499,-6.8533,-6.8507,-6.8658,-6.8608,-6.8617,-6.862,-6.8663,-6.868,-6.8695,-6.8497,-6.8496,-6.8495,0,0,-6.8301,-6.8317,-6.8379,-6.8397,-6.8423,-6.8421,-6.8436,-6.8454,-6.8457,-6.8522,-6.849,-6.8529,-6.8595,-6.8612,-6.8629,-6.8748,-6.8721,-6.876,-6.8826,-6.8872,-6.8886,-6.8898,-6.894,-6.8956,-6.8769,-6.8769,-6.8769,0,-6.8356,-6.8426,-6.8413,-6.8467,-6.849,-6.8455,-6.8517,-6.8534,-6.8569,-6.8584,-6.8555,-6.8638,-6.865,-6.8731,-6.876,-6.8775,-6.8791,-6.8757,-6.8885,-6.8897,-6.8909,-6.8949,-6.8965,-6.8774,-6.8773,-6.8773,-6.8772,0,-6.8493,-6.8542,-6.8589,-6.8627,-6.8654,-6.8712,-6.8706,-6.8735,-6.8721,-6.8722,-6.8789,-6.8802,-6.884,-6.8858,-6.8844,-6.8937,-6.892,-6.8888,-6.8835,-6.893,-6.8968,-6.8983,-6.878,-6.8779,-6.8777,-6.8776,0,0,-6.8641,-6.8673,-6.869,-6.8707,-6.8733,-6.877,-6.8826,-6.8865,-6.889,-6.8916,-6.8961,-6.9019,-6.899,-6.901,-6.8997,-6.9037,-6.9131,-6.9,-6.9,-6.9024,-6.9234,-6.9258,-6.9276,-6.9113,-6.9116,-6.9118,-6.9232,0,-6.8752,-6.8852,-6.8842,-6.8935,-6.898,-6.8948,-6.8997,-6.9017,-6.902,-6.9057,-6.9058,-6.91,-6.9059,-6.9071,-6.9109,-6.9111,-6.9172,-6.9103,-6.9154,-6.9156,-6.915,-6.9295,-6.932,-6.9427,-6.9247,-6.9249,-6.9251,0,-6.8895,-6.8929,-6.9027,-6.9048,-6.9066,-6.911,-6.9146,-6.9182,-6.9204,-6.9203,-6.9227,-6.9208,-6.9262,-6.9209,-6.9283,-6.9236,-6.9257,-6.9261,-6.9265,-6.9269,-6.9209,-6.9303,-6.9461,-6.9477,-6.9274,-6.9272,-6.927,0,-6.8994,-6.9063,-6.9131,-6.9146,-6.9172,-6.9204,-6.9216,-6.9235,-6.926,-6.929,-6.9306,-6.9342,-6.9361,-6.9388,-6.9379,-6.9341,-6.9456,-6.9401,-6.9455,-6.9456,-6.9481,-6.9479,-6.9644,-6.9495,-6.9494,-6.9494,-6.9494,0,-6.9118,-6.918,-6.9176,-6.9218,-6.9286,-6.9274,-6.934,-6.9348,-6.9366,-6.9408,-6.9381,-6.9421,-6.9406,-6.9445,-6.9437,-6.95,-6.9509,-6.9509,-6.9506,-6.9511,-6.9511,-6.9524,-6.9516,-6.9498,-6.9497,-6.9496,-6.9496,0,-6.9239,-6.9239,-6.9312,-6.9331,-6.9337,-6.9387,-6.9402,-6.9441,-6.9442,-6.9495,-6.9507,-6.9508,-6.9551,-6.9545,-6.9593,-6.9588,-6.9667,-6.9655,-6.966,-6.9657,-6.9712,-6.9707,-6.989,-6.9914,-6.9749,-6.9751,-6.9752,0,-6.9319,-6.9366,-6.9391,-6.9419,-6.9434,-6.9477,-6.9503,-6.9493,-6.952,-6.955,-6.9585,-6.9627,-6.966,-6.9731,-6.9735,-6.9772,-6.976,-6.9822,-6.9765,-6.9769,-6.9761,-6.9758,-6.9763,-6.9833,-6.9835,-6.9836,-6.9838,0,-6.946,-6.9459,-6.9498,-6.9537,-6.9569,-6.9599,-6.9626,-6.965,-6.9642,-6.9674,-6.9719,-6.9745,-6.9795,-6.9837,-6.9872,-6.9882,-6.9859,-6.9856,-6.987,-6.9876,-6.9877,-6.9877,-6.969,-6.9851,-6.985,-6.9849,-6.9848,-6.9848,-6.9563,-6.9604,-6.9629,-6.9673,-6.9693,-6.9719,-6.9757,-6.9764,-6.9803,-6.9844,-6.9835,-6.9887,-6.9908,-6.9953,-6.9967,-7.0006,-6.9983,-7.0004,-7.0009,-7.0014,-7.0021,-6.9871,-7.0012,-7.0012,-7.0011,-7.0011,-7.0011,0,-6.9703,-6.9718,-6.9759,-6.9799,-6.9834,-6.9812,-6.9841,-6.9871,-6.9917,-6.994,-6.9974,-7.0027,-7.0067,-7.0075,-7.0113,-7.0143,-7.0133,-7.0153,-7.0151,-7.0154,-7.0039,-7.0023,-7.0161,-7.0161,-7.0161,-7.0161,-7.0161,-7.0161,-6.978,-6.9848,-6.9849,-6.9927,-6.994,-6.9992,-7.0011,-7.0035,-7.0053,-7.0114,-7.0148,-7.0154,-7.0171,-7.021,-7.0246,-7.0247,-7.0262,-7.0287,-7.0284,-7.0177,-7.0162,-7.0147,-7.0132,-7.029,-7.0291,-7.0395,-7.0396,-7.0397]}]]